星链-6367 (STARLINK-6367 )

导读

STARLINK-6367是美国太空探索技术公司(SpaceX)星链星座的组网卫星,于2023年7月16日发射入轨,属于星链互联网星座扩容任务的一部分。该卫星承担低轨互联网服务任务,通过星链星座为全球提供宽带互联网接入,拓展星链系统覆盖范围与服务能力。

基本信息
目录编号:
57376
目录名称:
STARLINK-6367
国际标识:
2023-099BA
轨道中心:
EARTH
卫星名称:
星链-6367
卫星全名:
星链-6367 (STARLINK-6367 )
卫星状态:
在轨 (已飞行1146 天)
发射日期:
2023-07-16 UTC
国别 :
美国 (US)
星等 :
--
轨道信息
数据来源 国际轨道数据
星历时间: 2026-09-01T22:24:22+0800
2天前
查看轨道信息
半长轴: 6861.144km
偏心率: 0.00017
轨道倾角: 43.004°
近地点辐角 279.441°
升交点赤经 324.729°
平近点角 80.625°
近地点: 481.84km
远地点: 484.174km
周期: 94.266分钟
每日圈数: 15.275941
详细信息
固有亮度:
5
最大亮度:
2.5
卫星平台:
Starlink v1.5
覆盖范围:
全球
运营商:
太空探索技术公司
运营商所在国:
美国
制造商(研发单位):
太空探索技术公司
制造商所在国:
美国
使用方式:
暂无
卫星简介
星链(Starlink)计划是由太空探索技术公司(SpaceX)提出的一个巨型低轨卫星互联网星座项目,计划在2019年至2024年间在太空搭建由约1.2万颗卫星组成的“星链”网络,其中1584颗将部署在地球上空550千米处的近地轨道,并从2020年开始工作。该卫星仍在工作。
2D轨道图
3D轨道图
轨道高度分析图
轨道倾角分析图
轨道综合分析图
查看轨道综合分析图
交会数据列表
事件ID 空间交会对象 最接近时刻(TCA) 交会距离 交会风险概率(CRP) 交会风险指数(CRI) 操作
CDM_260903-171005-737605-994021
2026-09-03T
17:10:51+0000
0.234 km
中距离
5.38452E-4 高风险 0.9
CDM_260904-233305-737605-979821
2026-09-04T
23:33:56+0000
0.303 km
远距离
2.314424E-4 高风险 0.82
CDM_260905-015505-737605-979821
2026-09-05T
01:55:10+0000
0.418 km
远距离
1.164146E-4 高风险 0.76
CDM_260905-004205-726105-737621
2026-09-05T
00:42:29+0000
0.577 km
远距离
1.142525E-4 高风险 0.76
CDM_260904-012805-737606-762221
2026-09-04T
01:28:06+0000
0.568 km
远距离
1.015836E-4 高风险 0.75
CDM_260905-052505-721905-737621
2026-09-05T
05:25:31+0000
0.731 km
远距离
5.850586E-5 中风险 0.7
CDM_260904-182405-737605-904621
2026-09-04T
18:24:43+0000
0.843 km
远距离
3.654625E-5 中风险 0.66
CDM_260904-063105-737605-994021
2026-09-04T
06:31:09+0000
0.910 km
远距离
2.355565E-5 中风险 0.62
CDM_260904-162205-737606-762221
2026-09-04T
16:22:33+0000
1.008 km
极远距离
1.691799E-5 中风险 0.6
CDM_260903-235305-737606-762221
2026-09-03T
23:53:57+0000
1.022 km
极远距离
1.613503E-5 中风险 0.59